Theta_e
293 288 285 288 288 286 287 286 284 287 292 291 290 289 292 294 293 293 293 293 294 296 301 300 299 301 308 318 323 323 324 325 326 325 326 326 326 325 328 329 327 324 323 320
289 285 290 291 290 289 287 285 284 288 291 290 288 289 291 293 294 296 296 294 294 294 295 298 299 297 302 313 321 322 324 324 326 326 325 321 324 316 319 315 323 324 321 320
286 289 294 292 289 288 286 285 285 286 287 287 287 284 287 290 292 295 296 296 296 295 295 296 297 297 298 307 318 321 323 324 326 324 312 306 308 308 308 308 309 312 321 319
289 293 291 289 289 289 284 289 288 287 284 280 285 278 284 288 291 292 294 295 292 295 296 296 297 296 297 304 315 321 323 322 323 315 316 314 318 313 310 310 307 307 309 318
287 290 290 288 289 290 287 291 288 286 283 282 281 280 283 286 287 291 293 293 293 292 294 296 296 297 297 301 311 317 319 320 318 317 317 316 315 314 307 308 307 305 304 306
289 292 291 291 291 290 292 289 288 285 283 278 282 282 279 284 288 289 291 293 295 295 295 296 296 297 297 302 308 313 316 317 315 317 315 316 312 308 306 306 307 305 302 301
288 289 291 292 289 291 289 285 277 277 276 276 281 280 282 288 291 290 292 294 295 296 296 296 297 296 297 300 306 309 313 311 313 315 312 313 311 308 306 307 308 304 300 296
284 282 290 292 290 288 286 285 278 272 274 277 282 279 285 291 294 294 295 296 296 295 295 295 295 296 298 299 300 305 307 308 308 308 305 305 304 305 308 306 306 304 303 302
283 282 289 290 292 292 287 284 287 281 270 274 279 283 288 290 292 292 293 293 293 296 296 296 296 297 297 298 299 300 302 302 303 302 301 301 303 301 299 298 297 298 299 297
287 282 287 288 291 290 288 291 283 281 272 271 277 278 282 288 290 292 294 294 295 297 296 295 296 296 297 297 298 300 300 301 301 301 301 300 300 299 298 295 294 293 291 291
289 285 284 287 286 286 287 286 286 287 282 275 273 278 286 288 292 292 294 294 293 294 294 294 295 295 296 297 297 299 299 299 299 300 299 299 298 298 296 295 293 292 289 288
291 287 280 284 288 290 288 287 288 281 278 281 279 282 291 293 293 293 293 293 293 292 293 293 294 295 295 296 296 297 298 298 298 298 298 298 297 295 294 293 291 289 288 286
293 285 275 281 286 288 286 287 290 288 284 280 276 280 291 291 291 292 292 292 293 292 292 292 293 293 293 294 295 296 296 297 297 296 296 295 295 293 292 290 288 286 285 284
296 286 282 280 284 287 285 288 290 288 279 282 283 285 289 290 293 294 292 293 292 292 292 292 292 292 292 293 293 294 295 295 296 295 295 294 293 292 291 289 286 285 284 283
292 283 287 286 287 287 286 285 287 286 287 283 286 287 289 293 294 295 294 294 293 293 294 293 292 292 292 292 293 294 294 295 295 295 294 294 293 291 289 287 285 284 283 283
291 285 286 282 287 288 285 287 287 287 288 288 288 288 295 294 294 292 292 291 291 292 293 293 293 293 292 292 292 293 294 294 293 294 293 292 290 289 288 287 285 284 283 282
288 285 284 280 282 283 280 285 286 286 288 289 285 288 290 288 291 288 287 289 289 290 291 291 291 291 291 292 293 292 294 293 291 290 290 290 289 288 288 286 284 283 282 281
286 285 284 279 281 275 281 286 289 287 287 291 290 286 286 286 289 287 287 287 288 289 289 290 290 290 290 290 289 289 288 290 289 288 287 287 287 287 286 285 284 282 281 280
290 286 281 277 272 276 280 283 284 284 284 285 285 285 285 285 287 287 290 291 290 290 290 289 289 288 288 288 286 285 286 287 288 288 288 287 287 287 285 284 284 283 281 280
285 287 282 277 269 268 277 282 285 287 279 284 285 285 283 284 278 284 287 290 291 291 291 289 288 286 284 284 283 283 284 284 285 286 287 287 286 287 285 286 284 283 281 281
280 282 280 278 274 272 280 283 284 276 278 282 285 284 283 282 284 286 287 287 287 288 289 289 285 284 284 284 283 283 283 283 284 284 283 283 283 285 285 284 282 281 280 279
277 278 277 278 276 271 283 283 280 281 282 284 283 283 282 282 284 284 285 285 286 285 286 286 284 283 283 283 281 282 281 283 282 281 281 280 279 280 281 281 278 279 279 279
274 277 274 277 277 281 282 280 284 285 283 283 282 282 283 282 281 282 283 283 284 283 283 281 278 280 280 280 279 278 280 281 280 277 278 277 276 277 277 278 276 276 278 279
276 279 276 276 279 281 283 285 285 284 284 284 284 282 282 281 282 283 281 282 281 281 281 279 277 277 278 277 277 276 278 278 273 275 274 273 273 274 277 280 280 280 279 279
276 279 275 273 280 282 284 285 285 285 285 283 283 283 282 281 280 281 278 278 278 277 276 275 275 275 275 275 274 273 274 271 272 271 273 272 272 272 276 279 279 279 280 281
279 278 276 274 282 282 283 284 282 282 280 278 279 278 279 277 276 275 274 275 274 273 273 272 272 271 272 272 273 270 270 273 271 273 273 272 271 271 272 273 274 283 283 283
Wind_Speed
1 5 7 10 9 4 6 3 2 4 3 5 8 9 11 10 8 12 11 12 12 15 15 10 11 14 13 12 15 15 15 13 11 8 10 9 10 7 9 9 12 13 11 13
5 4 9 3 3 5 4 4 4 4 1 3 5 13 11 9 11 15 14 12 14 9 9 11 10 9 12 17 18 16 17 15 14 11 9 5 8 3 4 3 9 12 13 13
7 5 6 6 4 5 4 6 5 6 2 3 5 9 7 6 6 7 10 12 11 11 12 10 10 10 10 13 17 17 19 18 16 11 7 4 5 4 3 2 3 4 11 13
5 5 5 5 6 5 4 5 3 3 3 4 2 10 5 6 8 8 13 14 8 9 10 9 9 8 11 15 12 15 14 13 12 13 12 11 10 7 4 5 3 3 4 11
9 7 8 5 7 7 7 4 3 1 2 1 2 2 10 4 5 13 13 10 11 9 9 11 9 8 7 7 9 8 9 11 11 14 13 12 8 5 4 5 8 6 3 4
6 0 6 8 3 4 8 6 8 5 3 4 9 9 6 5 7 5 6 7 8 5 2 1 1 3 3 5 6 8 11 11 11 13 13 15 12 9 7 7 7 6 4 3
1 3 1 4 7 3 5 8 2 4 2 8 1 2 9 10 11 6 10 9 8 3 4 4 3 3 3 6 7 7 10 10 12 13 11 12 9 9 10 9 8 8 6 3
8 4 9 6 8 11 8 9 8 9 5 5 1 8 6 6 10 10 8 7 6 4 5 6 4 3 2 6 6 6 7 5 6 7 7 6 7 5 6 8 6 7 7 8
7 6 1 2 4 9 6 6 5 5 2 4 6 7 10 7 11 10 11 10 8 6 5 6 6 5 4 5 3 2 3 3 5 6 6 7 7 7 7 7 5 5 5 5
7 3 1 1 3 3 5 8 4 2 2 5 6 5 7 5 9 9 8 6 9 9 7 6 4 4 5 4 3 2 3 6 6 7 6 6 7 6 6 6 7 8 6 6
6 5 1 3 7 10 4 4 3 5 6 6 2 7 7 5 6 6 7 9 8 8 8 6 4 4 4 5 4 4 3 4 4 6 6 7 6 6 6 7 7 7 6 8
5 5 5 7 3 3 3 7 7 6 5 4 3 10 4 10 7 6 8 6 6 4 6 6 4 4 4 5 5 5 4 4 5 5 5 6 5 5 6 6 6 7 7 6
9 3 4 6 5 1 4 5 7 3 4 7 5 7 3 8 8 7 7 7 6 6 6 5 5 4 4 5 5 5 5 6 4 4 5 5 6 6 6 6 6 5 6 6
6 3 6 9 4 4 6 3 2 7 4 6 16 10 9 7 12 9 4 3 1 2 5 5 7 7 6 6 6 6 6 5 4 5 6 6 6 6 6 6 7 7 6 6
4 5 4 2 2 3 3 5 6 6 5 9 8 13 3 8 9 9 9 9 7 9 10 9 9 8 7 7 7 6 6 5 5 6 6 7 6 6 6 6 6 5 5 5
3 3 4 2 3 6 8 14 8 7 6 9 7 23 6 3 4 8 7 8 8 8 9 10 10 11 10 9 8 7 6 6 6 6 7 6 7 7 8 7 7 7 7 6
4 5 4 4 3 3 9 20 17 6 7 8 12 3 3 5 6 5 6 6 6 6 7 9 9 9 10 10 10 9 9 5 6 7 7 6 6 7 9 8 7 7 8 6
6 6 3 3 4 8 3 3 13 13 5 10 4 4 4 3 4 6 2 3 5 6 6 6 6 8 8 7 7 10 9 7 7 6 5 4 6 7 5 6 8 7 6 9
4 5 3 6 6 6 5 6 8 10 10 4 6 4 2 2 5 2 2 4 3 3 4 4 5 5 7 7 7 7 8 6 6 7 6 6 6 7 6 9 11 9 8 7
2 3 4 3 6 10 6 1 1 5 5 8 6 5 2 1 4 3 4 4 5 5 3 5 6 5 6 8 8 8 8 8 7 7 7 5 5 7 9 10 9 5 6 8
3 3 8 5 4 8 9 6 0 6 7 5 7 4 3 3 4 3 6 5 3 4 6 6 5 4 7 7 6 8 7 8 9 9 7 5 3 5 5 4 2 5 5 5
10 8 5 3 4 11 7 4 8 6 4 7 5 3 2 1 4 5 7 7 7 7 7 7 6 7 8 6 3 7 7 6 6 7 7 6 4 2 2 5 3 3 5 6
4 8 8 9 8 3 3 3 3 4 8 6 6 3 3 2 2 4 4 7 7 7 6 5 4 8 7 7 3 7 5 7 7 6 6 5 5 3 1 3 3 2 3 5
3 3 4 5 4 5 4 4 4 5 7 6 4 2 1 2 5 5 4 5 6 6 8 7 8 8 8 7 7 6 8 6 5 6 6 4 3 3 1 1 2 4 4 5
5 7 7 2 2 5 2 4 6 5 5 7 5 4 4 4 3 3 4 5 5 6 6 6 7 8 10 8 8 7 6 4 5 4 5 4 3 3 3 3 4 5 5 7
5 7 5 6 8 5 5 6 3 5 5 6 5 3 4 6 5 5 3 3 4 8 7 8 7 7 10 10 10 7 8 8 6 6 4 4 3 2 2 2 4 10 11 12
Wind_Direction
6 106 179 199 194 144 149 164 202 256 211 154 225 258 263 276 294 278 258 253 249 240 247 238 225 217 204 203 201 193 186 185 169 169 172 183 184 179 185 186 180 181 177 172
40 210 222 186 162 193 202 198 245 290 18 165 279 263 252 252 251 249 263 261 248 247 247 245 235 208 196 198 200 195 194 182 184 181 177 166 172 161 172 152 173 178 172 175
158 226 174 160 164 165 196 165 201 214 6 273 305 281 257 286 260 273 253 251 258 235 252 247 239 218 202 200 198 196 196 191 184 170 125 81 76 64 109 169 168 181 179 179
208 226 136 150 188 147 216 212 190 200 93 241 23 285 285 251 278 294 281 266 280 246 247 248 236 223 209 211 201 203 193 184 173 160 166 170 182 175 194 159 144 182 186 185
227 178 190 166 200 165 221 156 172 139 144 31 302 327 280 280 265 258 269 282 275 253 251 264 262 246 229 199 183 178 170 174 165 176 178 177 179 175 150 147 167 168 198 194
177 66 156 188 114 161 146 80 42 46 62 287 196 182 280 238 218 274 266 293 300 316 338 311 281 156 167 146 149 156 164 173 170 181 182 188 180 157 154 164 173 183 183 186
142 207 153 135 92 54 97 88 336 337 348 237 15 225 244 266 259 238 283 298 302 270 316 331 22 46 125 166 168 164 171 183 183 186 185 188 175 171 178 175 183 174 175 187
157 215 176 193 171 174 184 156 162 196 202 260 262 241 249 247 283 262 277 289 352 320 301 292 297 301 222 202 195 189 191 181 173 171 163 162 160 168 187 180 178 190 196 200
160 245 188 131 140 145 195 196 169 88 22 56 227 288 301 295 288 306 324 350 338 290 266 272 275 275 302 318 296 235 188 136 155 158 159 173 171 163 173 172 168 181 181 171
196 130 37 129 113 35 156 163 90 15 164 259 269 259 224 285 295 1 13 8 357 348 326 299 279 302 326 320 307 276 198 192 177 169 176 174 181 178 170 160 182 183 180 173
156 113 257 132 197 165 145 178 161 139 158 183 245 256 213 181 73 69 6 4 358 351 352 351 331 343 327 314 316 275 232 196 185 184 175 178 191 190 180 182 185 186 171 174
180 142 166 199 252 213 173 177 158 147 227 240 154 255 204 121 106 65 25 354 338 11 2 3 4 344 325 288 275 264 256 240 221 208 194 201 197 188 192 190 185 173 185 182
176 196 80 359 350 2 190 200 204 111 77 208 156 255 90 116 70 45 28 7 354 356 11 3 360 319 289 291 281 272 265 249 230 203 203 210 207 191 202 190 184 181 171 182
85 124 156 189 181 131 160 170 135 182 183 196 235 266 260 333 344 342 358 338 112 44 350 1 359 335 313 300 279 262 256 241 235 211 206 209 211 201 195 194 184 185 187 182
96 143 131 236 96 69 165 181 188 207 194 190 243 267 83 307 306 321 335 335 3 11 14 7 1 356 345 330 308 287 264 246 223 226 224 219 201 193 193 195 192 184 179 192
-0 118 117 288 206 245 263 250 235 218 248 251 252 263 269 356 3 26 27 28 23 5 358 355 352 346 347 348 336 317 286 262 230 230 228 209 191 190 202 192 182 180 184 176
121 132 129 227 123 111 267 230 216 198 205 200 215 246 64 56 50 39 34 35 19 1 357 357 348 341 336 341 334 335 323 291 247 248 240 212 200 206 207 189 178 191 194 184
136 128 136 152 124 218 260 315 202 195 193 220 153 108 97 91 125 131 94 59 5 349 353 342 328 324 321 328 338 331 323 319 287 266 257 208 198 214 204 193 202 185 182 196
127 141 171 170 195 307 294 200 166 166 233 188 157 121 64 22 145 186 49 20 345 326 318 307 304 304 312 322 327 319 321 324 312 294 265 236 206 214 194 207 200 194 190 195
314 89 152 148 157 207 243 230 130 122 262 177 148 146 131 66 103 239 12 338 327 334 327 330 336 325 325 327 326 334 330 329 323 319 303 274 234 222 209 212 209 192 192 202
170 190 206 169 214 284 240 218 211 120 228 142 145 161 146 120 169 259 314 320 315 305 317 327 331 320 302 314 331 323 324 326 316 317 313 299 258 240 226 219 174 183 194 186
175 165 183 141 198 260 186 115 169 182 89 128 138 149 154 200 306 309 325 330 336 336 334 336 322 317 317 314 322 311 317 313 311 316 314 307 290 244 180 169 159 171 182 201
213 177 178 174 210 227 206 162 87 135 128 139 118 126 172 248 291 329 316 336 336 337 334 323 321 313 316 324 337 306 282 319 317 322 320 320 322 300 196 162 157 135 190 211
267 178 160 94 227 155 127 83 105 109 114 119 97 56 66 327 336 321 322 346 344 345 349 341 335 331 321 324 318 274 301 314 318 308 306 309 299 306 291 214 187 206 205 216
193 137 162 231 99 82 65 131 141 111 87 63 40 35 30 2 348 32 353 344 345 339 334 334 325 320 311 313 307 307 310 315 302 298 297 294 278 240 228 227 207 217 225 212
188 169 168 212 174 141 163 135 70 98 84 59 41 8 24 45 15 357 330 333 334 326 325 323 314 302 307 314 311 330 339 339 318 301 292 268 258 249 247 251 274 245 239 240